RH
59 64 64 62 60 58 68 74 68 62 61 60 59 60 62 64 64 64 67 69 77 79 76 79 76 77 79
72 72 69 66 71 77 80 74 66 60 57 59 62 65 66 70 69 68 66 73 85 76 75 68 67 79 78
77 72 75 80 86 88 75 70 63 61 60 65 69 75 73 71 70 69 70 73 73 69 74 73 76 76 76
76 84 86 89 77 75 72 65 66 66 71 78 78 72 71 71 74 76 78 78 75 73 76 80 83 80 77
89 90 89 70 74 68 71 70 74 80 80 75 72 75 75 76 76 79 82 77 74 74 79 81 86 86 87
89 85 80 71 69 71 77 84 88 76 77 83 79 80 80 80 80 77 76 79 80 80 80 80 79 83 86
84 81 77 72 71 88 98 97 88 83 82 84 80 81 78 77 76 79 81 82 82 79 79 77 75 77 78
76 73 71 85 94 83 79 82 83 79 78 85 78 78 78 80 80 81 81 81 77 73 73 77 79 78 80
72 79 81 74 74 76 81 86 86 78 79 83 80 88 84 84 69 64 74 73 74 78 80 82 80 80 80
79 70 63 67 77 77 79 93 94 89 68 85 91 92 87 67 66 71 74 79 82 80 80 80 82 84 87
65 70 74 79 84 84 89 97 98 94 84 92 94 94 94 90 82 78 78 79 78 81 84 86 90 92 90
77 82 88 92 89 93 92 93 92 99 96 100 96 98 94 90 85 75 75 81 86 90 90 92 93 94 92
88 90 94 94 94 98 88 94 94 91 93 92 100 100 99 94 91 89 85 84 87 91 85 91 93 96 97
95 96 98 98 96 97 100 99 99 92 81 89 93 96 97 97 98 92 87 93 87 92 93 90 91 94 95
100 100 99 98 98 97 100 99 97 92 91 89 87 93 97 100 96 91 90 90 90 92 96 96 90 89 91
100 100 100 100 100 98 97 99 96 92 93 92 94 96 89 85 91 96 95 95 93 95 95 97 92 85 87
100 100 100 100 95 98 97 96 93 91 91 93 97 96 94 89 69 72 95 97 96 95 94 95 95 91 89
Wind_Speed
20 22 27 30 31 32 31 29 29 30 28 30 29 31 33 33 34 35 35 35 34 33 34 34 33 33 33
19 23 26 31 31 31 27 28 28 28 28 32 32 32 34 33 33 33 33 33 32 33 33 34 35 34 34
22 24 28 30 29 27 27 28 26 29 30 32 32 31 31 31 31 32 34 34 32 32 32 33 33 33 34
22 23 24 24 24 25 27 27 32 30 31 31 29 30 30 30 32 31 31 30 29 30 30 31 31 32 32
18 21 18 23 22 25 27 30 31 32 29 28 28 32 33 31 31 31 29 31 33 33 32 31 31 31 32
19 19 22 24 24 24 28 27 11 23 24 31 30 32 31 31 30 33 35 33 32 34 34 31 29 30 30
23 23 24 27 31 28 23 22 26 30 29 29 33 32 31 32 34 35 35 33 30 28 27 26 27 28 30
24 28 28 27 26 27 28 27 28 29 26 22 30 34 33 31 35 33 29 27 27 28 30 32 31 30 31
22 23 25 27 24 26 24 21 21 26 31 24 21 27 33 35 26 24 24 27 32 31 29 30 31 32 33
23 29 28 27 22 21 25 21 22 17 18 10 24 22 9 22 19 30 33 29 30 32 32 31 30 30 29
28 25 25 24 24 27 26 24 25 24 38 27 22 27 18 23 22 28 33 35 31 32 32 31 29 26 28
21 22 23 28 29 30 33 31 32 34 39 35 24 28 27 24 20 28 29 34 31 31 31 32 29 29 29
20 24 24 29 33 30 33 32 33 36 35 32 31 33 29 27 25 32 30 31 33 30 27 28 31 31 30
22 25 26 26 28 27 27 29 28 33 37 30 28 30 30 29 29 31 34 19 28 31 30 32 33 31 31
21 23 25 25 27 27 26 27 23 26 31 35 33 30 31 32 30 32 31 30 31 31 28 29 33 32 31
24 23 24 25 27 29 26 24 24 27 28 31 30 29 27 25 28 33 33 30 32 30 29 26 31 34 30
24 26 27 26 27 27 26 25 26 26 29 29 26 21 12 13 27 22 24 29 30 30 29 27 26 34 33
Wind_Direction
311 315 314 313 312 316 314 312 310 306 306 305 302 301 299 298 295 293 292 290 287 285 282 280 278 276 275
306 311 308 310 307 309 311 306 304 305 306 302 301 300 298 296 295 294 291 291 291 288 284 281 278 278 276
298 306 305 306 308 308 305 305 307 303 304 300 302 301 300 299 296 295 294 291 287 284 282 280 277 276 273
300 303 302 303 307 307 309 310 304 302 297 295 302 299 298 296 297 295 294 292 288 284 281 279 277 275 274
300 301 305 311 309 309 302 305 301 300 298 301 300 297 297 300 298 297 295 294 290 286 283 280 277 276 275
299 302 303 304 307 303 299 300 300 310 305 300 301 295 296 294 296 296 294 294 290 289 285 279 276 275 273
299 294 295 300 303 295 292 295 295 299 301 293 298 293 294 293 295 295 295 293 293 292 287 282 281 281 280
298 299 300 299 299 303 302 302 297 298 298 287 296 290 294 293 294 292 291 292 294 292 290 289 287 283 280
299 298 301 302 303 307 303 306 299 299 299 291 288 292 297 291 292 293 289 292 293 293 291 288 285 283 281
309 310 314 315 307 300 298 291 291 302 301 290 298 304 300 289 289 295 295 293 292 291 290 287 285 283 278
317 312 310 307 305 308 304 291 286 280 286 297 295 293 282 292 291 293 292 291 289 289 288 286 283 278 275
311 307 305 304 308 307 309 306 300 282 293 290 279 283 285 285 290 297 291 292 290 286 287 287 285 281 277
307 302 301 304 310 308 314 310 305 302 296 294 280 279 277 278 283 288 293 295 290 283 288 286 283 282 281
302 301 304 306 306 306 303 303 298 299 308 299 291 284 276 276 277 282 285 279 282 283 281 283 284 279 274
307 306 305 307 305 307 302 299 292 298 301 305 306 295 281 273 278 277 277 280 281 281 281 280 280 276 275
308 304 302 304 304 305 302 298 294 298 298 299 301 300 295 282 262 267 279 279 282 283 282 278 283 285 278
306 304 303 300 305 302 303 301 300 299 296 297 296 295 299 297 302 290 278 282 285 284 279 274 271 279 283